Date String (YYYY-MM-DD hh:mm:ss) UTC,Instrument flags,Ambient pressure (hPa),Sample flow (lpm),Bypass flow (lpm),Sample temperature (°C),Ambient temperature (°C),ASC tube jacket temperature (°C),LED temperature (°C),Box temperature (°C),Sample RH (%),Span deviation,Mass concentration (μg/m³),Mass concentration (μg/m³),Mass concentration (μg/m³)
DateTimeUTC,F1_M11,P_M11,Q1_M11,Q2_M11,T1_M11,T2_M11,T3_M11,T4_M11,T5_M11,U1_M11,ZSPAN_M11,X0_M11,X2_M11,X1_M11
2022-12-05 05:00:00,,0817.6,5.00,0.00,24.1,22.5,00.0,33.2,26.0,16.0,0000.0,0007.95,0005.25,0005.05
2022-12-05 05:01:00,,0817.6,5.01,0.00,24.1,22.6,00.0,33.2,26.0,16.1,0000.0,0007.64,0005.05,0004.85
2022-12-05 05:02:00,,0817.5,5.01,0.00,24.1,22.7,00.0,33.2,26.0,15.9,0000.0,0007.72,0004.85,0004.67
2022-12-05 05:03:00,,0817.5,4.98,0.00,24.2,22.7,00.0,33.2,26.0,15.9,0000.0,0007.78,0004.73,0004.54
2022-12-05 05:04:00,,0817.5,5.00,0.00,24.2,22.8,00.0,33.1,26.1,15.9,0000.0,0007.78,0004.73,0004.55
2022-12-05 05:05:00,,0817.3,5.03,0.00,24.2,22.8,00.0,33.1,26.1,16.0,0000.0,0007.81,0004.75,0004.56
2022-12-05 05:06:00,,0817.3,4.99,0.00,24.2,22.8,00.0,33.2,26.1,16.1,0000.0,0007.77,0004.70,0004.51
2022-12-05 05:07:00,,0817.3,4.99,0.00,24.2,22.8,00.0,33.1,26.1,16.0,0000.0,0007.53,0004.68,0004.49
2022-12-05 05:08:00,,0817.3,5.00,0.00,24.2,22.8,00.0,33.1,26.1,16.0,0000.0,0007.62,0004.70,0004.50
2022-12-05 05:09:00,,0817.4,5.01,0.00,24.2,22.9,00.0,33.1,26.1,16.1,0000.0,0007.68,0004.72,0004.50
2022-12-05 05:10:00,,0817.4,5.00,0.00,24.2,22.9,00.0,33.2,26.1,16.2,0000.0,0007.71,0004.70,0004.47
2022-12-05 05:11:00,,0817.3,5.00,0.00,24.2,23.0,00.0,33.2,26.2,16.3,0000.0,0008.13,0004.66,0004.42
2022-12-05 05:12:00,,0817.3,4.99,0.00,24.3,23.0,00.0,33.2,26.2,16.4,0000.0,0008.06,0004.60,0004.37
2022-12-05 05:13:00,,0817.3,5.00,0.00,24.3,23.0,00.0,33.2,26.2,16.3,0000.0,0007.65,0004.55,0004.33
2022-12-05 05:14:00,,0817.3,5.01,0.00,24.3,23.0,00.0,33.2,26.2,16.0,0000.0,0007.00,0004.50,0004.31
2022-12-05 05:15:00,,0817.1,5.00,0.00,24.3,23.0,00.0,33.2,26.2,16.0,0000.0,0006.95,0004.48,0004.30
2022-12-05 05:16:00,,0817.1,4.99,0.00,24.3,23.1,00.0,33.2,26.2,16.2,0000.0,0006.83,0004.40,0004.25
2022-12-05 05:17:00,,0817.3,4.99,0.00,24.3,23.1,00.0,33.2,26.2,16.3,0000.0,0006.76,0004.36,0004.22
2022-12-05 05:18:00,,0817.3,5.01,0.00,24.3,23.1,00.0,33.2,26.2,16.3,0000.0,0006.66,0004.33,0004.19
2022-12-05 05:19:00,,0817.3,5.00,0.00,24.3,23.1,00.0,33.2,26.2,16.1,0000.0,0006.57,0004.30,0004.15
2022-12-05 05:20:00,,0817.3,5.00,0.00,24.3,23.1,00.0,33.2,26.3,16.1,0000.0,0006.42,0004.24,0004.12
2022-12-05 05:21:00,,0817.3,5.00,0.00,24.3,23.1,00.0,33.2,26.3,16.1,0000.0,0007.42,0004.19,0004.09
2022-12-05 05:22:00,,0817.3,4.99,0.00,24.3,23.1,00.0,33.2,26.3,16.1,0000.0,0006.79,0004.18,0004.08
2022-12-05 05:23:00,,0817.4,5.01,0.00,24.3,23.1,00.0,33.2,26.3,16.1,0000.0,0006.66,0004.21,0004.12
2022-12-05 05:24:00,,0817.3,5.01,0.00,24.3,23.1,00.0,33.2,26.2,16.0,0000.0,0006.62,0004.20,0004.11
2022-12-05 05:25:00,,0817.4,4.98,0.00,24.3,23.1,00.0,33.2,26.2,16.1,0000.0,0006.66,0004.18,0004.07
2022-12-05 05:26:00,,0817.6,5.01,0.00,24.4,23.1,00.0,33.3,26.3,16.2,0000.0,0006.58,0004.12,0004.00
2022-12-05 05:27:00,,0817.5,5.02,0.00,24.3,23.1,00.0,33.3,26.2,16.2,0000.0,0006.46,0004.10,0003.96
2022-12-05 05:28:00,,0817.2,5.00,0.00,24.3,23.0,00.0,33.3,26.2,16.5,0000.0,0006.42,0004.10,0003.96
2022-12-05 05:29:00,,0816.9,4.99,0.00,24.3,23.0,00.0,33.3,26.2,16.7,0000.0,0006.39,0004.09,0003.95
2022-12-05 05:30:00,,0817.0,5.00,0.00,24.3,22.9,00.0,33.3,26.2,16.8,0000.0,0006.21,0004.02,0003.91
2022-12-05 05:31:00,,0817.0,5.00,0.00,24.3,22.9,00.0,33.3,26.1,16.9,0000.0,0006.08,0003.96,0003.84
2022-12-05 05:32:00,,0816.6,5.01,0.00,24.3,22.8,00.0,33.3,26.1,17.1,0000.0,0004.95,0003.94,0003.81
2022-12-05 05:33:00,,0816.5,5.00,0.00,24.3,22.8,00.0,33.3,26.1,17.1,0000.0,0004.70,0003.90,0003.77
2022-12-05 05:34:00,,0816.8,5.01,0.00,24.3,22.7,00.0,33.2,26.1,16.6,0000.0,0004.60,0003.85,0003.73
2022-12-05 05:35:00,,0816.9,5.00,0.00,24.2,22.7,00.0,33.2,26.0,16.6,0000.0,0004.72,0003.84,0003.70
2022-12-05 05:36:00,,0816.9,4.98,0.00,24.2,22.7,00.0,33.2,26.0,16.7,0000.0,0004.90,0003.78,0003.66
2022-12-05 05:37:00,,0817.0,5.00,0.00,24.2,22.7,00.0,33.2,26.0,16.8,0000.0,0004.73,0003.73,0003.61
2022-12-05 05:38:00,,0816.8,5.01,0.00,24.2,22.6,00.0,33.2,26.0,16.8,0000.0,0004.60,0003.68,0003.59
2022-12-05 05:39:00,,0816.5,5.01,0.00,24.2,22.6,00.0,33.2,26.0,16.5,0000.0,0004.61,0003.66,0003.56
2022-12-05 05:40:00,,0816.8,4.99,0.00,24.2,22.6,00.0,33.2,26.0,16.5,0000.0,0004.72,0003.64,0003.53
2022-12-05 05:41:00,,0816.9,4.99,0.00,24.2,22.6,00.0,33.1,25.9,16.4,0000.0,0004.77,0003.66,0003.53
2022-12-05 05:42:00,,0816.8,5.01,0.00,24.1,22.6,00.0,33.1,26.0,16.2,0000.0,0004.80,0003.68,0003.56
2022-12-05 05:43:00,,0817.0,5.00,0.00,24.1,22.7,00.0,33.1,26.0,16.3,0000.0,0004.75,0003.68,0003.57
2022-12-05 05:44:00,,0817.0,5.01,0.00,24.2,22.7,00.0,33.1,26.0,16.4,0000.0,0004.74,0003.70,0003.60
2022-12-05 05:45:00,,0817.1,4.99,0.00,24.2,22.7,00.0,33.1,26.0,16.4,0000.0,0004.87,0003.75,0003.63
2022-12-05 05:46:00,,0817.1,4.99,0.00,24.2,22.7,00.0,33.1,26.0,16.3,0000.0,0004.82,0003.74,0003.63
2022-12-05 05:47:00,,0817.2,5.01,0.00,24.2,22.7,00.0,33.1,26.0,16.2,0000.0,0004.38,0003.73,0003.64
2022-12-05 05:48:00,,0817.1,5.01,0.00,24.2,22.7,00.0,33.1,26.0,16.3,0000.0,0004.43,0003.74,0003.64
2022-12-05 05:49:00,,0817.0,5.00,0.00,24.2,22.7,00.0,33.1,26.0,16.2,0000.0,0004.50,0003.76,0003.66
2022-12-05 05:50:00,,0817.0,5.00,0.00,24.2,22.7,00.0,33.1,26.0,16.0,0000.0,0004.97,0003.77,0003.66
2022-12-05 05:51:00,,0817.1,4.99,0.00,24.2,22.8,00.0,33.1,26.0,15.6,0000.0,0005.09,0003.78,0003.69
2022-12-05 05:52:00,,0817.2,5.00,0.00,24.2,22.8,00.0,33.1,26.0,15.7,0000.0,0005.14,0003.81,0003.72
2022-12-05 05:53:00,,0817.4,5.02,0.00,24.2,22.8,00.0,33.1,26.1,16.3,0000.0,0005.17,0003.81,0003.72
2022-12-05 05:54:00,,0817.4,5.00,0.00,24.2,22.8,00.0,33.1,26.1,16.5,0000.0,0005.36,0003.84,0003.72
2022-12-05 05:55:00,,0817.5,5.00,0.00,24.2,22.9,00.0,33.1,26.1,16.2,0000.0,0005.46,0003.84,0003.72
2022-12-05 05:56:00,,0817.4,5.00,0.00,24.2,22.9,00.0,33.1,26.1,16.1,0000.0,0005.36,0003.81,0003.70
2022-12-05 05:57:00,,0817.5,5.01,0.00,24.2,22.9,00.0,33.1,26.1,16.0,0000.0,0005.34,0003.81,0003.70
2022-12-05 05:58:00,,0817.4,5.00,0.00,24.2,23.0,00.0,33.1,26.1,16.4,0000.0,0005.41,0003.82,0003.70
2022-12-05 05:59:00,,0817.3,4.99,0.00,24.2,23.0,00.0,33.1,26.2,16.5,0000.0,0005.47,0003.81,0003.70
